GFSSW_con_sbcape_294.txt.gz
CAPE
1 1 1 2 1 3 2 1 1 0 0 0 0 0 0 0 0 0 0 0 114 413 303 813 1107 1303 1295 769 520 497 634 145 53 30 31 16 66 93 48 116 188 187 0 0 0
1 2 3 1 2 0 2 2 1 0 0 0 0 0 0 0 0 0 4 619 487 577 1288 1334 1185 1130 1433 640 505 706 293 14 22 6 28 19 10 0 98 142 80 16 0 0 0
2 3 3 0 1 0 0 3 2 1 0 0 0 0 0 0 0 0 450 809 853 848 1501 830 686 949 835 95 184 322 38 48 17 17 26 1 1 43 49 106 86 5 0 0 0
2 3 2 3 2 0 0 2 1 1 0 0 0 0 0 0 0 95 917 769 1106 752 1479 902 517 549 59 64 15 289 28 6 15 18 18 13 24 21 10 64 186 70 1 13 3
1 3 5 1 0 0 2 1 2 1 0 0 0 0 0 0 0 102 966 375 324 930 1471 829 619 453 242 1 4 251 20 25 16 13 0 17 11 22 5 24 123 55 73 152 253
1 2 5 0 1 1 1 1 1 0 0 0 0 0 0 0 0 282 72 72 580 1248 1440 376 274 502 564 304 332 311 79 14 74 0 2 0 0 4 3 0 35 65 59 27 60
1 2 2 0 1 2 1 3 1 0 0 0 0 0 0 0 0 533 404 278 674 820 152 17 126 175 452 80 296 121 88 45 26 28 8 24 0 12 0 3 0 3 11 41 42
0 2 0 1 2 1 1 1 0 0 0 0 0 0 0 0 0 17 453 407 333 521 392 0 0 243 0 0 114 254 276 226 26 38 126 169 0 4 0 0 3 11 22 32 38
0 2 0 0 1 2 1 0 0 0 0 0 0 0 0 0 0 0 140 112 77 9 0 0 15 171 0 129 357 65 9 1 284 42 241 232 0 5 0 5 21 26 25 26 130
0 2 0 1 0 1 0 0 0 0 0 0 0 0 0 0 0 0 57 53 9 0 0 0 4 99 408 1 144 137 0 0 257 195 424 268 1 0 6 23 41 39 34 52 130
1 0 0 0 1 1 0 0 0 0 0 0 0 0 0 0 0 78 107 136 4 0 0 0 1 63 168 205 105 126 238 248 492 184 32 218 0 0 31 49 42 59 66 53 236
3 1 0 1 1 1 0 0 0 0 0 0 0 0 0 0 0 3 204 167 31 39 1 0 8 14 85 110 0 10 67 264 359 300 449 419 5 22 2 69 46 67 36 123 289
1 1 1 1 0 0 0 0 0 0 0 0 0 0 0 0 0 0 94 140 163 162 69 2 16 0 13 1 3 3 8 180 398 231 15 96 20 331 86 51 11 104 120 61 303
1 1 1 0 0 0 0 0 0 0 0 0 0 0 0 0 0 0 0 25 185 294 68 48 8 0 0 0 0 0 22 40 142 153 457 47 152 44 798 281 33 31 97 182 226
1 1 1 4 0 0 0 0 0 0 0 0 0 0 0 0 0 0 0 0 96 82 0 3 8 65 0 0 0 0 0 0 1 56 370 159 347 171 737 553 81 39 88 124 437
0 0 0 0 0 0 0 0 0 0 0 0 0 0 0 0 0 0 0 0 0 0 0 0 1 0 79 0 0 0 0 0 0 18 74 420 324 313 670 874 944 297 164 231 417
0 0 0 0 0 0 0 0 0 0 0 0 0 0 0 0 0 0 0 0 0 0 0 0 0 0 0 0 0 0 0 0 0 1 0 0 291 539 18 19 466 88 373 247 257
0 0 0 0 0 0 0 0 0 0 0 0 0 0 0 0 0 0 0 0 0 0 0 0 0 0 0 0 0 0 0 0 54 12 13 35 454 681 854 702 697 718 834 519 257
0 0 0 0 0 0 0 0 0 0 0 0 0 0 0 0 0 0 0 0 0 0 0 0 0 0 18 0 0 0 1 0 0 0 12 0 814 1046 922 584 481 353 1025 1084 1190
0 0 0 0 0 0 0 0 0 0 0 0 0 0 0 0 0 0 0 0 0 0 0 0 0 0 0 0 0 0 0 0 0 5 2 8 398 290 943 810 1667 1661 1387 1151 583
0 0 0 0 0 0 0 0 0 0 0 0 0 0 0 0 0 0 0 0 0 0 0 0 0 0 0 0 0 0 0 0 0 4 41 26 478 1163 1076 1243 1420 702 535 312 270
0 0 0 0 0 0 0 0 0 0 0 0 0 0 0 0 0 0 0 0 0 0 0 0 0 0 0 0 0 0 0 0 13 21 0 0 298 1130 1761 1508 1145 97 4 2 4
0 0 0 0 0 0 0 0 0 0 0 0 0 0 0 0 0 0 0 0 0 0 0 0 0 0 0 2 0 0 0 0 0 0 12 24 515 1844 1672 1366 789 244 3 1 0
0 0 0 0 0 0 0 0 0 0 0 0 0 0 0 0 0 0 0 0 0 0 4 0 0 0 0 75 51 3 0 0 0 0 0 14 1437 1673 1382 917 458 38 3 1 0
0 1 0 8 0 0 0 0 0 0 0 0 0 0 0 0 0 0 0 0 0 0 0 0 0 0 1 37 9 6 0 2 0 0 0 75 14 1678 1139 346 92 6 1 0 0
0 0 0 0 0 0 0 0 1 0 0 0 0 0 0 0 0 0 0 0 5 9 0 0 23 0 69 9 23 20 15 0 0 0 0 0 686 1597 673 137 13 2 0 0 0
3 0 0 0 1 0 13 15 0 0 0 0 0 0 0 0 1 5 0 35 140 119 60 5 41 268 195 96 27 0 9 3 0 3 2 0 1083 1107 568 324 288 70 2 0 0

GFSSW_con_sbcape_300.txt.gz
CAPE
1 2 1 0 0 0 0 2 1 3 3 2 1 0 0 0 0 0 0 0 0 645 461 317 257 594 509 460 108 113 517 32 24 60 51 40 2 0 0 0 42 16 220 268 336
0 2 2 0 0 0 0 2 2 3 1 2 1 0 0 0 0 0 0 198 857 1146 554 1102 1143 13 0 316 510 380 463 41 29 36 68 34 1 1 0 0 16 148 229 272 275
1 2 2 0 0 0 0 1 0 2 2 2 1 0 0 0 0 0 0 918 837 646 636 1042 1384 110 2 343 515 571 371 26 78 73 90 72 0 0 4 0 20 186 217 208 179
1 2 3 0 0 0 0 0 0 0 2 1 0 0 0 0 8 49 1219 1212 862 7 75 429 670 278 73 148 140 337 261 50 103 109 39 27 8 11 0 0 4 127 154 178 215
2 2 2 0 0 0 0 0 0 1 3 1 0 0 0 0 0 273 1456 1367 170 0 17 0 36 227 518 35 144 64 144 31 38 28 41 59 114 6 0 0 0 0 124 142 186
3 4 0 0 0 0 0 0 3 2 2 0 0 0 0 0 20 125 32 241 322 12 0 0 0 80 250 75 225 322 254 4 63 66 162 80 27 0 0 0 0 0 0 5 64
4 5 0 0 0 0 0 0 1 1 0 0 0 0 0 0 83 62 0 13 354 614 559 73 6 84 380 97 203 350 220 22 11 0 47 118 53 0 0 0 0 0 0 0 0
1 0 0 0 3 1 0 0 2 0 0 0 0 0 0 0 4 14 0 47 209 544 937 184 8 31 72 0 159 254 105 30 9 17 1 45 56 0 0 0 0 0 0 0 8
0 0 0 0 0 0 1 2 0 0 0 0 0 0 0 37 130 86 29 194 125 128 111 519 67 71 22 1 14 32 89 54 133 111 45 24 32 27 0 0 0 0 0 7 37
0 0 0 0 0 0 1 0 0 0 0 0 0 0 0 12 78 329 247 420 311 331 138 126 128 36 10 0 1 16 188 34 39 95 25 2 0 0 0 0 0 0 57 80 20
0 0 0 0 0 0 0 0 0 0 0 0 0 0 0 0 0 110 293 370 375 5 54 0 103 114 13 2 3 6 151 195 227 254 48 40 10 0 0 0 0 0 4 10 80
1 1 0 0 0 0 0 0 0 0 0 0 0 0 0 0 0 0 0 0 9 22 0 0 0 116 139 3 34 11 142 133 282 350 159 30 0 8 0 0 0 0 0 25 14
0 3 1 0 1 0 0 0 0 0 0 0 0 0 0 0 0 0 0 0 39 48 16 0 0 0 343 131 16 8 55 303 490 510 361 68 17 0 0 15 0 0 0 4 14
1 0 1 0 0 0 0 0 0 0 0 0 0 0 0 0 0 0 0 103 133 173 105 23 18 10 340 267 6 162 115 415 366 60 8 69 4 0 0 0 0 0 0 6 11
1 1 0 2 0 0 0 0 0 0 0 0 0 0 0 0 0 0 0 34 213 167 15 14 0 69 426 274 89 217 110 491 276 84 82 79 4 0 0 0 0 11 0 31 28
0 1 0 0 0 0 0 0 0 0 0 0 0 0 0 0 0 0 0 0 13 0 0 0 0 0 0 0 47 0 235 487 256 15 102 53 0 0 0 0 0 0 16 124 60
0 0 0 0 0 0 0 0 0 0 0 0 0 0 0 0 0 0 0 0 0 0 0 0 0 0 0 0 0 0 0 0 0 251 188 29 48 53 0 0 0 53 11 110 161
0 0 0 0 0 0 0 0 0 0 0 0 0 0 0 0 0 0 0 0 0 0 0 0 0 0 0 0 0 0 0 0 0 0 2 56 139 249 57 9 291 404 460 298 536
0 0 0 0 0 0 0 0 0 0 0 0 0 0 0 0 0 0 0 0 0 0 0 0 0 0 0 0 0 0 0 0 0 0 0 127 471 451 381 450 355 34 302 548 498
0 0 0 0 0 0 0 0 0 0 0 0 0 0 0 0 0 0 0 0 0 0 0 0 0 0 0 0 0 0 0 0 0 0 0 76 632 469 433 222 456 327 190 67 24
0 0 0 0 0 0 0 0 0 0 0 0 0 0 0 0 0 0 0 0 0 0 0 0 0 0 0 0 0 0 0 0 0 0 0 74 643 1170 633 467 98 1 5 4 4
0 0 0 0 0 0 0 0 0 0 0 0 0 0 0 0 0 0 0 0 0 0 0 0 0 0 0 0 0 0 0 0 0 0 0 0 907 752 311 81 5 7 13 3 2
0 0 0 0 0 0 0 0 0 0 0 0 0 0 0 0 0 0 0 0 0 0 0 0 0 0 0 0 0 0 0 0 0 0 0 0 835 485 138 31 10 0 0 0 0
0 0 0 0 0 0 0 0 0 0 0 0 0 0 0 0 0 0 0 0 0 0 12 0 0 0 0 0 0 0 0 0 0 0 2 473 881 668 64 54 2 1 1 1 0
0 0 0 0 0 0 0 0 0 0 0 0 0 0 0 0 0 0 0 0 0 0 0 0 0 0 0 0 0 0 0 0 96 1 0 859 937 506 223 37 1 0 0 0 0
0 0 0 0 0 0 0 0 0 0 0 0 0 0 0 0 0 0 0 0 0 0 0 0 0 0 0 0 0 3 6 3 0 693 873 913 746 543 169 11 0 0 0 0 0
0 0 0 0 0 0 0 0 0 0 0 0 0 0 0 0 0 0 0 0 0 0 0 0 0 0 0 0 7 16 33 14 71 395 687 695 441 231 88 64 20 5 0 0 0

GFSSW_con_sbcape_303.txt.gz
CAPE
1 2 0 1 1 2 2 0 2 0 0 0 1 1 0 0 0 0 0 0 0 832 268 35 221 712 134 261 51 45 198 5 15 56 53 24 21 19 39 155 150 170 159 342 500
1 2 1 2 1 2 0 0 0 0 0 0 1 1 0 0 0 0 0 38 742 882 935 874 273 549 34 200 709 344 263 48 43 43 40 23 15 8 74 96 221 204 257 404 357
2 3 1 1 1 1 0 1 0 0 0 1 1 0 0 0 0 0 275 1183 598 991 4 554 644 32 128 132 507 572 521 178 167 43 3 18 0 5 2 99 161 239 264 318 229
3 3 0 0 1 0 0 0 0 1 2 1 1 0 0 0 0 157 1296 934 861 340 47 515 852 159 157 235 154 264 225 97 183 161 6 0 0 0 0 18 185 204 221 253 189
1 0 0 1 1 0 0 0 0 0 2 1 0 0 0 0 0 1017 1439 1020 239 174 508 766 464 379 468 293 106 260 304 121 164 75 10 19 40 20 4 73 204 209 194 168 164
0 1 1 0 0 0 0 0 0 0 2 1 0 0 0 0 27 785 278 154 4 13 24 235 301 247 319 165 190 285 337 39 45 0 63 35 0 0 0 76 138 159 128 133 140
0 1 1 1 0 0 0 0 0 0 1 0 0 0 0 0 39 53 240 238 126 74 68 14 166 281 272 164 177 265 23 94 40 17 2 0 0 0 0 0 52 88 82 112 132
1 1 1 1 1 1 0 0 1 0 0 0 0 0 0 0 5 10 0 133 246 551 358 52 67 18 94 33 194 132 69 17 22 105 61 1 0 0 0 0 0 0 19 52 48
0 1 0 1 0 0 0 1 0 0 0 0 0 0 0 0 23 0 23 167 191 246 325 90 123 70 0 30 8 31 129 45 27 99 19 13 17 0 0 0 0 0 0 0 0
0 2 0 0 0 0 1 0 0 0 0 0 0 0 0 101 192 69 44 138 202 167 297 228 162 12 0 4 10 57 189 98 70 254 22 2 5 0 0 0 0 0 0 0 0
0 0 0 1 2 0 0 0 0 0 0 0 0 0 0 0 123 279 310 351 440 256 153 100 164 134 15 17 19 72 230 345 266 348 73 50 17 0 0 0 0 0 0 0 0
3 2 0 0 0 0 0 0 0 0 0 0 0 0 0 0 0 0 284 326 407 405 55 0 0 0 27 10 13 143 302 330 344 299 51 11 5 18 1 0 0 0 0 0 0
1 2 0 0 1 0 0 0 0 0 0 0 0 0 0 0 0 0 5 0 16 16 2 0 0 0 105 36 35 34 74 248 102 422 156 37 0 0 0 0 0 0 0 3 24
2 1 0 0 0 0 0 0 0 0 0 0 0 0 0 0 0 0 0 5 12 85 20 8 62 96 70 153 21 51 70 224 472 290 116 21 11 0 0 0 1 0 0 8 66
1 1 0 1 0 0 0 0 0 0 0 0 0 0 0 0 0 0 0 24 106 149 26 102 0 0 342 396 44 155 137 381 557 49 12 20 1 0 0 6 1 0 0 7 48
0 1 0 0 0 0 0 0 0 0 0 0 0 0 0 0 0 0 0 0 0 49 0 11 0 0 3 229 132 81 270 34 35 0 77 24 11 16 0 28 29 25 2 3 36
0 0 0 0 0 0 0 0 0 0 0 0 0 0 0 0 0 0 0 0 0 0 0 0 0 0 0 0 131 189 89 5 112 156 184 0 2 81 0 0 19 28 13 10 50
0 0 0 0 0 0 0 0 0 0 0 0 0 0 0 0 0 0 0 0 0 0 0 0 0 0 0 0 0 270 0 0 0 24 0 15 50 0 45 0 113 437 253 13 113
0 0 0 0 0 0 0 0 0 0 0 0 0 0 0 0 0 0 0 0 0 0 0 0 0 0 0 0 0 0 0 0 0 0 0 2 29 163 46 183 260 421 386 590 560
0 0 0 0 0 0 0 0 0 0 0 0 0 0 0 0 0 0 0 0 0 0 0 0 0 0 0 0 0 0 0 0 0 0 0 0 416 160 210 12 11 22 47 3 2
0 0 0 0 0 0 0 0 0 0 0 0 0 0 0 0 0 0 0 0 0 0 0 0 0 0 0 0 0 0 0 0 0 0 0 0 302 875 212 19 12 7 4 3 3
0 0 0 0 0 0 0 0 0 0 0 0 0 0 0 0 0 0 0 0 0 0 0 0 0 0 0 0 0 0 0 0 0 0 0 0 0 430 201 7 2 2 2 1 1
0 0 0 0 0 0 0 0 0 0 0 0 0 0 0 0 0 0 0 0 0 0 0 0 0 0 0 0 0 0 0 0 0 0 0 0 0 310 179 200 62 4 1 0 1
0 0 0 0 0 0 0 0 0 0 0 0 0 0 0 0 0 0 0 0 0 0 12 0 0 0 0 0 0 0 0 0 0 0 0 0 367 576 365 272 0 2 2 0 1
0 0 0 0 0 0 0 0 0 0 0 0 0 0 0 0 0 0 0 0 0 0 0 0 0 0 0 0 0 0 0 132 145 7 0 14 634 673 392 154 0 0 0 0 0
0 0 0 0 0 0 0 0 0 0 0 0 0 0 0 0 0 0 0 0 0 0 0 0 0 0 0 0 0 0 0 14 96 840 891 864 851 755 279 74 54 6 0 0 0
0 0 0 0 0 0 0 0 0 0 0 0 0 0 0 0 0 0 0 0 0 0 0 0 0 0 0 0 0 3 0 41 346 481 944 839 720 380 353 253 176 81 64 4 0

GFSSW_con_sbcape_306.txt.gz
CAPE
2 3 1 0 0 0 0 0 1 2 2 2 1 1 1 0 0 0 0 0 137 1247 769 193 708 714 320 163 66 37 46 3 42 87 43 15 5 9 67 41 135 177 124 277 481
3 2 0 0 0 0 0 1 0 2 2 1 2 1 0 0 0 0 0 105 294 754 55 651 969 619 161 290 692 141 82 0 0 3 18 22 3 1 50 136 145 262 345 466 401
0 0 0 0 0 0 0 1 0 2 2 2 1 1 0 0 0 0 37 571 880 995 515 396 201 97 194 104 570 597 382 141 65 15 13 0 0 0 67 114 96 237 372 366 313
0 0 0 0 0 0 0 0 1 0 0 2 2 1 0 0 0 103 1027 911 895 590 461 650 191 152 102 196 267 139 218 164 75 8 0 0 0 0 0 54 99 237 321 276 262
0 1 0 1 0 0 0 0 0 0 0 2 1 0 0 0 0 653 1774 873 599 0 114 898 148 253 447 300 94 271 347 80 42 0 0 3 0 0 31 113 149 207 256 209 194
1 0 0 0 0 0 0 1 0 0 0 2 0 0 0 0 44 522 235 251 66 143 267 560 419 363 252 127 162 257 190 29 43 3 0 13 0 0 88 137 160 181 189 163 108
1 1 0 1 1 1 1 0 0 0 1 1 0 0 0 0 2 154 121 2 0 9 36 200 139 231 231 55 93 126 4 12 19 1 1 0 0 0 93 135 154 145 130 104 72
1 1 0 1 0 1 0 0 1 0 0 0 0 0 0 0 0 136 14 164 199 375 97 98 66 9 43 1 5 43 11 1 24 23 0 0 0 0 52 97 99 100 91 99 60
1 1 1 1 1 1 1 1 0 0 0 0 0 0 0 0 0 0 2 278 212 245 162 110 83 10 10 41 6 10 20 2 54 149 1 0 0 0 0 5 59 58 52 67 72
0 2 0 1 0 1 0 0 0 0 0 0 0 0 0 0 26 3 0 110 239 192 265 181 92 16 0 14 19 37 10 30 0 136 19 2 0 0 0 0 0 0 0 0 6
1 4 0 0 1 0 0 0 0 0 0 0 0 0 0 0 155 63 68 114 260 134 202 187 252 90 1 3 5 70 79 181 179 301 54 50 5 0 0 0 0 0 0 0 0
3 2 0 0 1 0 0 0 0 0 0 0 0 0 0 0 0 168 298 205 421 429 0 2 129 119 10 0 5 88 190 184 242 299 193 25 10 0 0 0 0 0 0 0 0
3 0 0 0 0 0 0 0 0 0 0 0 0 0 0 0 0 0 357 185 241 272 129 149 103 0 0 24 18 78 165 135 103 457 266 61 38 13 6 0 0 0 0 0 0
2 0 0 0 0 0 0 0 0 0 0 0 0 0 0 0 0 0 261 11 0 80 22 5 0 20 33 50 20 26 57 176 351 22 53 51 70 3 0 6 3 0 0 0 0
3 0 0 0 0 0 0 0 0 0 0 0 0 0 0 0 0 0 0 9 32 114 47 230 25 0 257 220 16 49 37 342 201 0 5 32 57 4 0 1 0 7 0 0 5
2 0 0 0 0 0 0 0 0 0 0 0 0 0 0 0 0 0 0 0 5 31 0 33 0 0 0 217 75 118 102 12 0 10 73 17 108 28 12 20 27 2 0 0 15
0 0 0 0 0 0 0 0 0 0 0 0 0 0 0 0 0 0 0 0 0 0 0 0 0 0 0 21 72 260 126 154 114 186 159 0 0 57 2 52 11 30 8 0 21
0 0 0 0 0 0 0 0 0 0 0 0 0 0 0 0 0 0 0 0 0 0 0 0 0 0 0 0 194 322 0 17 1 12 0 0 10 35 121 356 550 187 44 11 20
0 0 0 0 0 0 0 0 0 0 0 0 0 0 0 0 0 0 0 0 0 0 0 0 0 0 0 0 134 121 217 0 0 0 0 0 0 3 163 168 328 368 433 493 185
0 0 0 0 0 0 0 0 0 0 0 0 0 0 0 0 0 0 0 0 0 0 0 0 0 0 0 0 0 0 0 0 0 0 0 0 0 25 177 164 71 11 2 3 2
0 0 0 0 0 0 0 0 0 0 0 0 0 0 0 0 0 0 0 0 0 0 0 0 0 0 0 0 0 0 0 0 0 0 0 0 0 613 394 182 6 2 3 3 2
0 0 0 0 0 0 0 0 0 0 0 0 0 0 0 0 0 0 0 0 0 0 0 0 0 0 0 0 0 0 0 0 0 0 0 0 0 476 261 124 0 2 2 1 1
0 0 0 0 0 0 0 0 0 0 0 0 0 0 0 0 0 0 0 0 0 0 0 0 0 0 0 0 0 0 0 0 0 0 0 0 0 371 250 117 135 30 2 3 2
0 0 0 0 0 0 0 0 0 0 0 0 0 0 0 0 0 0 0 0 0 0 0 0 0 0 0 0 0 0 0 0 0 0 0 0 12 458 306 453 318 38 1 1 1
0 0 0 0 0 0 0 0 0 0 0 0 0 0 0 0 0 0 0 0 0 0 0 0 0 0 0 0 0 0 0 251 0 0 0 0 139 386 631 592 176 43 0 0 0
0 0 0 0 0 0 0 0 0 0 0 0 0 0 0 0 0 0 0 0 0 0 0 0 0 0 0 0 0 0 0 0 146 679 728 547 732 618 504 129 71 24 0 0 0
0 0 0 0 0 0 0 0 0 0 0 0 0 0 0 0 0 0 0 0 0 0 0 0 0 0 0 0 0 0 0 7 319 432 803 680 559 513 444 392 228 74 62 23 0

GFSSW_con_sbcape_309.txt.gz
CAPE
1 0 0 0 0 0 2 2 0 2 1 1 1 1 0 0 0 0 0 0 56 1336 583 388 627 354 344 716 339 78 140 145 108 180 49 14 23 76 53 50 135 161 20 94 395
0 0 0 0 0 1 2 1 0 2 2 2 1 0 0 0 0 0 0 45 967 1118 469 764 997 1062 330 544 957 667 386 71 108 134 63 6 22 60 15 113 190 180 191 360 580
0 0 0 0 1 1 1 1 0 1 0 0 1 1 0 0 0 0 0 727 899 611 371 819 1003 317 297 374 846 729 554 374 59 68 34 11 29 19 43 69 177 116 281 467 511
0 0 1 0 0 1 0 1 0 0 0 0 2 0 0 0 0 0 512 541 1030 108 561 220 128 179 182 328 398 335 216 336 143 68 39 24 12 19 0 30 95 102 359 454 432
0 1 0 0 0 1 1 0 0 0 0 0 1 0 0 0 0 205 883 933 335 437 224 691 148 178 497 332 248 326 419 162 100 44 35 14 1 0 105 95 182 324 408 366 226
0 1 0 2 1 1 0 0 0 0 0 1 0 0 0 0 1 32 0 382 570 111 232 699 138 387 233 225 264 290 198 88 88 88 41 35 5 22 142 136 250 362 348 343 247
0 0 1 1 1 1 0 0 0 1 1 0 0 0 0 0 3 63 117 195 249 88 191 567 186 364 354 162 224 149 212 160 95 93 32 31 30 1 232 134 256 256 291 298 351
0 0 2 1 0 0 0 1 0 0 0 0 0 0 0 0 0 124 98 104 106 193 269 178 235 104 113 44 131 109 73 167 136 100 0 30 227 4 246 185 186 226 321 364 353
3 2 1 0 0 0 1 0 0 0 0 0 0 0 0 0 0 72 62 181 136 519 233 118 114 17 40 147 188 281 231 201 155 167 58 97 119 0 224 210 234 210 215 299 342
4 3 2 1 0 0 0 0 0 0 0 0 0 0 0 0 9 57 92 411 407 424 340 305 33 0 32 13 165 184 165 116 203 195 106 121 108 4 147 169 216 222 237 233 310
4 0 1 0 0 1 0 0 0 0 0 0 0 0 0 8 60 82 172 407 325 365 230 136 228 32 24 29 13 31 148 129 195 340 76 90 79 20 0 41 76 187 254 287 301
5 0 0 0 1 1 0 0 0 0 0 0 0 0 0 30 129 147 254 557 599 545 25 233 196 196 29 4 36 82 126 108 431 589 320 207 169 112 3 17 9 16 32 76 129
2 0 1 0 0 0 0 0 0 0 0 0 0 0 0 0 0 304 349 327 524 568 445 464 104 123 145 103 89 94 99 179 235 482 437 307 283 242 74 22 17 9 1 0 0
0 0 0 1 0 0 0 0 0 0 0 0 0 0 0 0 0 30 400 185 12 387 369 126 121 59 55 84 118 125 79 183 293 200 249 240 288 375 188 170 69 33 5 4 1
1 0 1 1 0 0 0 0 0 0 0 0 0 0 0 0 0 0 472 106 148 136 164 269 95 4 88 17 159 256 157 446 294 333 189 246 282 554 83 281 236 158 155 115 98
0 1 0 0 0 0 0 0 0 0 0 0 0 0 0 0 0 0 63 0 7 136 117 202 37 0 0 279 315 477 539 453 403 493 481 264 264 345 322 224 143 264 267 293 197
1 1 0 0 0 0 0 0 0 0 0 0 0 0 0 0 0 0 0 0 44 54 0 0 0 0 2 364 583 634 615 233 370 607 285 74 330 394 296 311 660 791 282 295 348
0 0 0 0 0 0 0 0 0 0 0 0 0 0 0 0 0 0 0 0 0 0 0 0 0 0 0 0 167 581 220 24 59 71 6 163 319 376 511 670 668 719 635 258 296
0 0 0 0 0 0 0 0 0 0 0 0 0 0 0 0 0 0 0 0 0 0 0 0 0 0 0 0 118 244 429 19 4 0 0 0 153 256 587 650 587 349 137 67 349
0 0 0 0 0 0 0 0 0 0 0 0 0 0 0 0 0 0 0 0 0 0 0 0 0 0 0 0 0 70 25 1 0 0 0 0 2 2 965 888 420 159 12 5 12
0 0 0 0 0 0 0 0 0 0 0 0 0 0 0 0 0 0 0 0 0 0 0 0 0 0 0 0 0 0 0 0 0 0 0 0 0 710 1287 1116 381 142 92 70 102
0 0 0 0 0 0 0 0 0 0 0 0 0 0 0 0 0 0 0 0 0 0 0 0 0 0 0 0 0 0 0 0 0 0 0 0 0 943 953 792 382 223 251 248 24
0 0 0 0 0 0 0 0 0 0 0 0 0 0 0 0 0 0 0 0 0 0 0 0 0 0 0 0 0 0 0 0 0 0 0 0 0 644 575 668 373 399 130 5 5
0 0 0 0 0 0 0 0 0 0 0 0 0 0 0 0 0 0 0 0 0 0 0 0 0 0 0 0 0 0 0 0 0 0 0 0 0 587 419 612 493 94 17 21 0
0 0 0 0 0 0 0 0 0 0 0 0 0 0 0 0 0 0 0 0 0 0 0 0 0 0 0 0 0 0 4 216 0 0 0 10 9 520 586 752 357 38 23 75 63
0 0 0 0 0 0 0 0 0 0 0 0 0 0 0 0 0 0 0 0 0 0 0 0 0 0 0 0 0 0 2 118 739 142 67 728 856 915 938 423 173 116 150 214 240
0 0 0 0 0 0 0 0 0 0 0 0 0 0 0 0 0 0 0 0 0 0 0 0 0 0 0 0 0 2 4 231 658 836 1046 847 915 1016 916 816 529 381 230 360 450

GFSSW_con_sbcape_315.txt.gz
CAPE
0 2 1 2 1 0 1 2 1 1 2 1 0 0 0 0 0 0 0 0 33 1124 901 1008 926 1173 917 1205 1196 884 1009 449 365 282 485 419 436 332 238 167 119 220 378 315 201
1 1 1 2 1 0 1 2 1 1 1 0 0 0 0 0 0 0 0 715 262 1177 850 875 1125 1184 1307 1152 1078 843 169 181 368 294 478 403 417 175 217 145 147 156 254 202 155
1 1 1 2 2 1 2 2 0 1 0 0 0 0 0 0 0 0 969 697 1105 922 824 1093 1434 1422 829 959 401 271 373 172 306 253 281 322 416 156 163 298 147 179 199 142 122
1 1 1 1 1 1 1 1 0 1 0 0 0 0 0 0 0 0 1314 851 965 805 937 655 477 1124 563 389 315 467 104 143 186 180 207 276 77 127 217 265 212 175 142 103 104
1 1 1 1 1 0 1 1 2 1 0 0 0 0 0 0 0 0 1403 594 123 857 945 765 542 562 448 236 332 140 88 131 174 151 121 152 130 174 321 130 245 204 117 82 77
2 2 1 1 1 1 1 1 1 0 0 0 0 0 0 0 0 0 33 86 585 1032 466 589 711 501 525 347 295 83 201 125 229 228 218 216 389 462 257 150 161 152 160 97 50
5 3 1 1 1 2 0 1 0 0 0 0 0 0 0 0 0 0 111 452 810 503 291 336 871 832 445 227 157 90 179 283 271 265 224 254 216 473 440 224 255 218 241 157 103
5 2 1 1 4 1 1 0 0 0 0 0 0 0 0 0 0 2 334 586 655 438 400 677 581 565 553 439 275 149 78 104 200 231 159 258 221 587 530 504 423 338 308 263 125
4 4 2 2 0 1 0 0 0 0 0 0 0 0 48 0 0 52 139 412 643 657 544 305 686 557 252 347 261 256 29 92 192 219 268 210 464 734 597 592 497 400 404 343 262
2 2 2 0 2 0 0 0 0 0 0 0 0 0 0 59 171 286 51 429 619 565 440 619 636 513 285 448 220 234 103 104 198 140 138 264 177 545 773 455 403 332 405 345 340
4 2 0 1 2 0 0 0 0 0 0 0 0 0 209 220 158 72 203 483 479 643 714 347 559 162 203 202 233 352 191 149 226 295 269 317 398 462 795 716 436 340 320 341 289
2 2 1 1 0 0 0 0 0 0 0 0 0 26 410 255 249 219 598 742 886 657 382 273 193 221 140 157 180 260 227 279 479 368 486 377 540 464 563 793 721 569 389 287 275
1 3 1 0 0 0 0 0 0 0 0 0 0 37 607 584 565 655 774 962 807 284 194 470 469 266 284 249 314 253 301 276 165 813 772 743 799 652 595 617 683 614 528 393 275
3 2 1 0 0 0 0 0 0 0 0 0 0 3 625 529 745 643 730 930 695 627 524 486 564 176 248 190 95 59 218 110 314 362 518 1290 573 463 427 541 621 698 646 505 451
4 3 1 3 0 0 0 0 0 0 0 0 0 0 10 102 168 909 883 968 668 586 650 432 487 386 277 99 79 165 238 331 293 286 338 609 252 404 220 383 570 680 723 655 502
4 1 0 0 0 0 0 0 0 0 0 0 0 0 0 76 1 54 941 833 732 688 659 501 532 597 406 273 218 182 396 431 380 303 295 336 607 170 18 334 225 480 627 798 734
1 0 1 0 0 0 0 0 0 0 0 0 0 0 0 0 0 1 337 740 830 605 620 676 673 629 460 437 486 467 464 499 416 360 488 225 527 317 36 186 453 665 672 818 915
0 0 0 0 0 0 0 0 0 0 0 0 0 0 0 0 0 0 120 423 658 599 413 392 348 559 323 155 354 295 603 430 504 349 263 176 62 617 463 628 1118 1128 1001 1036 1156
0 0 0 0 0 0 0 0 0 0 0 0 0 0 0 0 0 0 0 15 286 475 366 418 389 103 0 0 0 23 252 188 272 215 265 188 383 190 230 448 917 1233 1095 1305 1559
0 0 0 0 0 0 0 0 0 0 0 0 0 0 0 0 0 0 0 0 0 0 0 29 157 91 6 0 0 0 0 6 238 241 169 153 205 187 133 322 1353 1508 1344 1241 1373
0 0 0 0 0 0 0 0 0 0 0 0 0 0 0 0 0 0 0 0 0 0 0 0 0 0 0 0 0 0 0 0 0 0 34 16 107 233 223 545 1730 1651 1151 855 816
0 0 0 0 0 0 0 0 0 0 0 0 0 0 0 0 0 0 0 0 0 0 0 0 0 0 0 0 0 0 0 0 1 7 23 24 63 1017 1479 1807 1897 1218 765 518 510
0 0 0 0 0 0 0 0 0 0 0 0 0 0 0 0 0 0 0 0 0 0 0 0 0 0 1 0 0 0 0 0 0 0 1 15 42 1391 1547 1484 1552 1035 687 372 248
0 0 0 0 0 0 0 0 0 0 0 0 0 0 0 0 0 0 0 0 0 0 0 0 0 0 0 2 0 3 0 0 2 3 5 10 15 1300 1062 1558 964 1023 642 335 254
0 0 0 0 0 0 0 0 0 0 0 0 0 0 0 0 0 0 0 0 0 0 0 0 0 0 0 0 0 0 0 0 0 0 15 8 0 884 1257 1519 1297 1172 928 949 935
0 0 0 0 0 0 0 0 0 0 0 0 0 0 0 0 0 7 20 18 11 17 0 0 8 0 0 0 0 0 0 0 1 0 8 13 6 1389 1532 1817 1293 1210 935 917 892
0 0 0 0 0 0 0 0 0 0 0 0 0 0 2 4 0 0 0 0 0 0 0 0 4 33 15 19 20 25 6 2 6 3 50 42 1182 1191 1541 1606 1465 1297 1126 1198 1083

GFSSW_con_sbcape_318.txt.gz
CAPE
0 1 3 1 1 0 1 0 1 1 1 0 0 0 0 0 0 0 0 0 81 851 668 938 935 1099 983 1140 483 562 748 396 113 211 243 210 177 191 124 57 95 435 445 225 83
0 1 1 1 2 2 1 1 1 1 1 0 0 0 0 0 0 0 0 381 464 1124 753 893 1127 1194 1505 563 0 332 566 143 268 376 254 408 92 93 74 67 100 290 265 99 69
0 0 0 1 2 1 1 1 1 1 0 0 0 0 0 0 0 0 796 900 1059 717 860 672 1164 1644 1492 138 0 214 382 110 386 233 252 383 78 155 64 88 98 229 139 45 41
2 2 2 1 1 3 2 1 1 0 0 0 0 0 0 0 0 0 872 584 1144 252 1023 1033 745 916 793 552 492 79 332 68 136 110 174 268 56 151 113 125 94 110 82 0 23
3 2 0 0 1 2 2 2 1 0 0 0 0 0 0 0 0 0 1226 338 0 445 1162 813 327 52 393 439 226 170 135 149 99 198 136 78 99 99 118 134 79 51 24 0 0
1 0 1 0 0 2 0 1 0 0 0 0 0 1 0 0 0 0 0 0 381 933 836 595 829 0 279 0 316 185 94 77 217 49 75 97 106 88 62 62 165 52 0 0 7
4 0 0 1 3 1 0 0 0 0 0 0 0 0 0 0 0 0 2 200 501 853 414 346 592 702 789 116 128 185 6 103 145 157 171 115 108 350 100 76 74 53 43 23 22
4 0 0 2 1 1 0 0 0 0 0 0 0 0 0 0 0 5 59 439 678 431 337 556 588 574 661 299 317 123 54 16 98 107 105 108 14 53 148 108 91 94 119 56 41
2 1 1 0 2 0 0 0 0 0 0 0 0 0 0 0 0 0 228 411 348 403 539 454 369 595 570 317 249 150 144 122 104 98 235 274 0 5 377 180 141 112 102 98 78
2 2 1 0 1 0 0 0 0 0 0 0 0 0 0 0 0 42 140 255 345 408 410 398 619 522 292 293 110 5 0 0 0 66 347 181 298 405 469 210 251 78 170 99 104
4 4 1 1 0 0 0 0 0 0 0 0 0 0 4 108 88 252 2 282 221 355 485 212 211 478 270 127 50 11 55 121 192 111 142 261 146 530 4 265 132 62 79 100 64
5 4 0 1 0 0 0 0 0 0 0 0 0 2 405 349 386 241 101 268 377 438 375 151 77 222 279 154 75 84 16 342 171 186 109 228 228 456 590 902 238 103 126 124 95
4 1 1 0 0 0 0 0 0 0 0 0 0 25 445 330 279 215 310 420 547 0 4 56 63 316 270 253 231 26 16 221 248 209 633 256 671 4 118 578 655 444 386 230 174
4 2 0 0 0 0 0 0 0 0 0 0 0 0 621 454 559 427 543 632 576 13 394 552 528 392 136 118 109 69 0 24 129 119 531 300 242 19 15 149 528 559 547 408 306
4 3 0 1 0 0 0 0 0 0 0 0 0 28 721 657 545 606 504 469 708 636 460 845 375 439 260 203 87 148 5 86 182 404 333 6 103 446 10 150 215 736 639 515 536
2 2 0 0 0 0 0 0 0 0 0 0 0 0 8 434 80 394 765 659 733 753 576 597 461 371 381 243 105 132 169 365 309 131 185 25 0 156 270 244 60 550 669 475 615
0 0 0 0 0 0 0 0 0 0 0 0 0 0 0 81 50 0 332 982 733 765 475 418 553 414 419 421 307 324 305 225 338 130 351 113 6 8 53 18 160 364 314 698 878
0 0 0 0 0 0 0 0 0 0 0 0 0 0 0 0 0 2 0 150 381 364 305 463 299 330 399 203 278 563 405 236 416 84 365 173 142 11 28 30 35 979 1077 1103 965
0 0 0 0 0 0 0 0 0 0 0 0 0 0 0 0 0 0 0 0 70 158 408 258 151 0 237 268 396 81 1 14 14 39 139 197 93 47 2 20 774 1251 1452 1776 2234
0 0 0 0 0 0 0 0 0 0 0 0 0 0 0 0 0 0 0 0 0 0 296 58 1 0 169 64 0 0 0 0 0 49 125 207 231 86 118 39 0 339 1536 2016 1898
0 0 0 0 0 0 0 0 0 0 0 0 0 0 0 0 0 0 0 0 0 0 0 0 0 0 0 0 0 0 0 0 0 0 39 13 35 293 478 0 4 69 1324 1055 1027
0 0 0 0 0 0 0 0 0 0 0 0 0 0 0 0 0 0 0 0 0 0 0 0 0 0 0 0 0 0 0 0 1 3 1 1 246 1193 725 796 994 949 820 518 465
0 0 0 0 0 0 0 0 0 0 0 0 0 0 0 0 0 0 0 0 0 0 0 0 0 0 0 0 0 13 0 0 0 0 0 0 118 1522 1834 1373 1011 881 426 228 287
11 0 0 0 0 0 0 0 0 0 0 0 0 0 0 0 0 0 0 0 0 0 0 0 0 0 0 0 0 0 0 0 0 2 2 1 668 1449 1438 1078 1111 740 351 307 268
1 0 0 0 0 0 0 0 0 0 0 0 0 0 0 0 0 0 0 0 0 67 0 0 0 0 0 0 0 0 0 0 4 0 0 0 0 769 1403 1038 1098 948 905 801 576
0 0 0 0 0 0 0 0 0 0 0 0 0 0 0 0 0 0 0 11 25 8 10 24 67 21 1 0 0 0 0 0 0 0 0 1 1 1362 1373 949 1081 1151 1146 1057 1131
0 0 0 0 0 0 0 0 0 0 0 0 0 0 0 1 0 0 0 0 0 0 1 5 19 36 6 15 53 37 74 20 20 1 0 0 290 802 0 0 825 1319 1223 1303 1068